{"data":{"norad_id":63093,"intl_designator":"2025-037S","name":"STARLINK-32900","alt_names":[],"object_type":"PAYLOAD","status":"ACTIVE","operator":null,"country":"US","launch_date":"2025-02-23","launch_site_code":"AFWTR","launch_vehicle":null,"mission":null,"orbit_class":"UNKNOWN","rcs_meters":null,"size_class":null,"mass_kg":null,"dimensions":null,"purposes":["comms"],"wikipedia_slug":null,"has_3d_model":false,"image_url":null,"decayed_at":null,"tle_current":{"epoch":"2026-09-21T22:00:03.000096Z","epoch_age_seconds":39922,"freshness":"FRESH","line1":"1 63093U 25037S   26264.91670139 -.00012089  00000+0 -41660-3 0  9995","line2":"2 63093  70.0003 217.3270 0003168 266.2207 121.5125 15.29594095  5672","mean_motion":15.29594095,"eccentricity":0.0003168,"inclination_deg":70.0003,"raan_deg":217.327,"arg_perigee_deg":266.2207,"mean_anomaly_deg":121.5125,"bstar":-0.0004166,"rev_number":567,"period_min":94.142622850541,"perigee_km":474.85307444666,"apogee_km":479.19650495661,"semimajor_km":6855.1617897016,"source":"CELESTRAK","updated_at":"2026-09-22T09:00:49.760881Z"}}}